#timestamp,LO_Frequency,Hit,StdDev 
1658487615.5,286047002.7,N
1658487635.3,286046999.8,N
1658487655.2,286047002.4,N
1658487675.0,286047000.0,N
1658487675.9,286047000.0,N
1658487695.8,286047000.4,N
1658487715.6,286047002.4,N
1658487735.4,286047002.0,N
1658487755.3,286047002.2,N
1658487775.1,286047001.6,N
1658487795.8,286047002.5,N
1658487815.7,286046999.7,N
1658487835.5,286047002.5,N
1658487855.4,286047002.6,N
1658487875.2,286047002.0,N
1658487895.0,286047001.9,N
1658487895.9,286047001.9,N
1658487915.8,286047004.3,Y
1658487935.6,286047000.0,P
1658487955.5,286046999.7,N
1658487975.3,286046999.7,N
1658487995.1,286047002.8,Y
1658488015.9,286047000.0,P
1658488035.7,286047000.3,N
1658488055.5,286047000.9,P
1658488075.4,286047000.5,N
1658488095.2,286047000.7,N
1658488115.1,286047001.0,Y
1658488116.0,286047001.0,P
1658488135.8,286047000.8,N
1658488155.6,286047001.2,P
1658488175.5,286046998.4,Y
1658488195.3,286046999.6,P
1658488215.2,286046997.4,P
1658488235.0,286046999.2,N
1658488235.9,286046999.2,N
1658488255.7,286046998.4,N
1658488275.6,286046998.8,N
1658488295.4,286046998.8,N
1658488315.3,286046998.8,N
1658488335.1,286046996.9,Y
1658488355.8,286046998.7,P
1658488375.7,286046998.8,P
1658488395.5,286046998.7,P
1658488415.4,286046998.5,Y
1658488435.2,286046999.9,P
1658488455.0,286047000.6,N
1658488455.9,286047000.6,N
1658488475.8,286047001.0,N
1658488495.6,286047000.9,N
1658488515.4,286047000.7,N
1658488535.3,286047000.6,N
1658488555.1,286046999.8,N
1658488575.9,286046999.9,N
1658488595.7,286047000.4,N
1658488615.5,286046999.8,N
1658488635.4,286046999.8,N
1658488655.2,286047001.0,N
1658488675.0,286047000.2,N
1658488675.9,286047000.2,N
1658488695.8,286047002.4,Y
1658488715.6,286047000.1,P
1658488735.5,286047000.0,N
1658488755.3,286047002.0,P
1658488775.1,286047000.1,N
1658488795.9,286047000.4,N
1658488815.7,286046999.8,N
1658488835.5,286047000.1,N
1658488855.4,286047000.3,N
1658488875.2,286047000.5,N
1658488895.1,286047000.6,N
1658488896.0,286047000.6,N
1658488915.8,286047000.3,N
1658488935.6,286047000.3,N
1658488955.5,286047002.8,Y
1658488975.3,286047000.3,P
1658488995.2,286047000.1,N
1658489015.9,286047001.1,P
1658489035.7,286047000.6,N
1658489055.6,286047000.7,N
1658489075.4,286047000.8,N
1658489095.2,286047000.6,N
1658489115.1,286047000.3,N
1658489116.0,286047000.3,N
1658489135.8,286047000.7,N
1658489155.7,286047000.6,N
1658489175.5,286046999.8,N
1658489195.3,286047001.0,Y
1658489215.2,286047001.2,P
1658489235.0,286047002.3,P
1658489235.9,286047002.3,P
1658489255.8,286047002.3,N
1658489275.6,286047002.4,Y
1658489295.4,286046998.6,P
1658489315.3,286046999.4,N
1658489335.1,286046999.4,N
1658489355.9,286046996.6,N
1658489375.7,286046999.6,N
1658489395.5,286046999.0,N
1658489415.4,286046996.5,N
1658489435.2,286046999.6,N
1658489455.0,286046997.3,N
1658489455.9,286046997.3,N
1658489475.8,286046996.8,N
1658489495.6,286046996.5,N
1658489515.5,286046996.9,N
1658489535.3,286046996.5,N
1658489555.1,286046999.2,N
1658489575.9,286046999.4,N
1658489595.7,286046999.3,N
1658489615.5,286046999.6,N
1658489635.4,286046999.5,N
1658489655.2,286046999.6,N
1658489675.1,286046996.5,N
1658489676.0,286046996.5,N
1658489695.8,286046997.0,N
1658489715.6,286046996.6,N
1658489735.5,286046999.5,N
1658489755.3,286046996.9,N
1658489775.2,286046999.2,N
1658489795.9,286046999.4,N
1658489815.7,286046999.5,N
1658489835.6,286046997.3,N
1658489855.4,286046996.6,N
1658489875.3,286046997.3,N
1658489895.1,286046997.5,N
1658489896.0,286046997.5,N
1658489915.8,286046996.8,N
1658489935.7,286046997.3,N
1658489955.5,286046997.8,N
1658489975.4,286046999.6,N
1658489995.2,286046999.6,N
1658490015.0,286046998.7,N
1658490015.9,286046998.7,N
1658490035.8,286046999.1,N
1658490055.6,286046999.2,N
1658490075.4,286046999.6,N
1658490095.3,286046998.8,N
1658490115.1,286046996.6,N
1658490135.9,286046997.1,N
1658490155.7,286046997.3,N
1658490175.5,286046997.8,N
1658490195.4,286046997.1,N
1658490215.2,286046997.1,N
1658490235.0,286046997.3,N
1658490235.9,286046997.3,N
1658490255.8,286046996.6,Y
1658490275.6,286046999.3,P
1658490295.5,286046999.3,N
1658490315.3,286046999.4,N
1658490335.1,286046999.6,N
1658490355.9,286046998.5,N
1658490375.7,286046998.4,N
1658490395.6,286046999.1,N
1658490415.4,286046998.5,N
1658490435.2,286046998.9,N
1658490455.1,286047000.8,N
1658490456.0,286047000.8,N
1658490475.8,286047001.2,N
1658490495.6,286046998.9,N
1658490515.5,286046998.9,N
1658490535.3,286046998.4,N
1658490555.2,286046998.7,N
1658490575.9,286046998.4,N
1658490595.7,286046998.5,N
1658490615.6,286046999.5,N
1658490635.4,286046999.3,N
1658490655.2,286046999.0,N
1658490675.1,286046999.6,N
1658490676.0,286046999.6,N
1658490695.8,286046998.3,N
1658490715.7,286046999.4,N
1658490735.5,286046999.6,N
1658490755.3,286046999.1,N
1658490775.2,286046999.0,N
1658490795.9,286046998.4,N
1658490815.7,286046999.5,N
1658490835.6,286046998.9,N
1658490855.4,286046998.7,N
1658490875.3,286047001.1,N
1658490895.1,286046998.4,N
1658490915.8,286047000.9,N
1658490935.7,286047000.0,N
1658490955.5,286046998.1,N
1658490975.4,286047000.7,N
1658490995.2,286047001.2,N
1658491015.0,286046998.6,N
1658491015.9,286046998.6,N
1658491035.8,286047000.8,N
1658491055.6,286047001.0,N
1658491075.5,286047001.1,N
1658491095.3,286046998.3,N
1658491115.1,286046998.8,N
1658491135.9,286046999.1,N
1658491155.7,286046999.0,N
1658491175.6,286046998.9,N
1658491195.4,286047001.1,N
